contact:dominique.lefevre@mio.osupytheas.fr, maurice.libes@osupytheas.fr, didier.mallarino@osupytheas.fr
Project:EMSO http://www.emso-fr.org/EMSO-France
Depth: 2436.0 m
Title:EMSO Ligure Ouest : Data MII capteur CSTAR
DateTime,Latitude,Longitude,Instrument_Serial,Reference_Counts,Signal_Counts,Corrected_Signal_raw_counts,Calculated_Beam_c_inverse_meters,Internal_thermistor_counts
DateTime,Latitude,Longitude,Instrument_Serial,Reference_Counts,Signal_Counts,Corrected_Signal_raw_counts,Calculated_Beam_c_inverse_meters,Internal_thermistor_counts
2019-11-16T00:00:33,42.805,6.029,CST-1368DR,7357,10307,15309,0.079,551
2019-11-16T00:03:35,42.805,6.029,CST-1368DR,7357,10309,15311,0.079,551
2019-11-16T00:06:36,42.805,6.029,CST-1368DR,7358,10306,15306,0.080,551
2019-11-16T00:09:38,42.805,6.029,CST-1368DR,7358,10308,15308,0.080,551
2019-11-16T00:12:40,42.805,6.029,CST-1368DR,7358,10308,15309,0.079,551
2019-11-16T00:15:42,42.805,6.029,CST-1368DR,7357,10308,15309,0.079,550
2019-11-16T00:18:43,42.805,6.029,CST-1368DR,7357,10307,15308,0.080,551
2019-11-16T00:21:45,42.805,6.029,CST-1368DR,7357,10307,15308,0.080,551
2019-11-16T00:24:46,42.805,6.029,CST-1368DR,7357,10304,15304,0.081,551
2019-11-16T00:27:48,42.805,6.029,CST-1368DR,7357,10308,15309,0.079,550
2019-11-16T00:30:50,42.805,6.029,CST-1368DR,7357,10308,15310,0.079,551
2019-11-16T00:33:51,42.805,6.029,CST-1368DR,7357,10306,15307,0.080,551
2019-11-16T00:36:53,42.805,6.029,CST-1368DR,7357,10306,15307,0.080,551
2019-11-16T00:39:55,42.805,6.029,CST-1368DR,7357,10307,15308,0.080,551
2019-11-16T00:42:57,42.805,6.029,CST-1368DR,7357,10306,15306,0.080,551
2019-11-16T00:45:58,42.805,6.029,CST-1368DR,7357,10307,15309,0.079,551
2019-11-16T00:49:00,42.805,6.029,CST-1368DR,7357,10308,15310,0.079,551
2019-11-16T00:52:02,42.805,6.029,CST-1368DR,7357,10306,15308,0.080,551
2019-11-16T00:55:03,42.805,6.029,CST-1368DR,7357,10307,15309,0.079,551
2019-11-16T00:58:05,42.805,6.029,CST-1368DR,7357,10305,15306,0.080,550
2019-11-16T01:01:07,42.805,6.029,CST-1368DR,7357,10306,15307,0.080,551
2019-11-16T01:04:08,42.805,6.029,CST-1368DR,7357,10307,15308,0.080,551
2019-11-16T01:07:10,42.805,6.029,CST-1368DR,7357,10305,15306,0.080,551
2019-11-16T01:10:12,42.805,6.029,CST-1368DR,7357,10307,15309,0.079,551
2019-11-16T01:13:14,42.805,6.029,CST-1368DR,7357,10306,15308,0.080,551
2019-11-16T01:16:15,42.805,6.029,CST-1368DR,7357,10306,15306,0.080,551
2019-11-16T01:19:17,42.805,6.029,CST-1368DR,7357,10305,15305,0.080,550
2019-11-16T01:22:19,42.805,6.029,CST-1368DR,7357,10307,15309,0.079,551
2019-11-16T01:25:20,42.805,6.029,CST-1368DR,7357,10306,15307,0.080,551
2019-11-16T01:28:22,42.805,6.029,CST-1368DR,7357,10307,15308,0.080,550
2019-11-16T01:31:24,42.805,6.029,CST-1368DR,7357,10306,15306,0.080,551
2019-11-16T01:34:25,42.805,6.029,CST-1368DR,7357,10305,15306,0.080,550
2019-11-16T01:37:27,42.805,6.029,CST-1368DR,7357,10306,15307,0.080,551
2019-11-16T01:40:29,42.805,6.029,CST-1368DR,7357,10307,15308,0.080,551
2019-11-16T01:43:30,42.805,6.029,CST-1368DR,7357,10306,15308,0.080,551
2019-11-16T01:46:32,42.805,6.029,CST-1368DR,7357,10306,15306,0.080,551
2019-11-16T01:49:34,42.805,6.029,CST-1368DR,7357,10307,15308,0.080,551
2019-11-16T01:52:35,42.805,6.029,CST-1368DR,7357,10305,15305,0.080,551
2019-11-16T01:55:37,42.805,6.029,CST-1368DR,7357,10307,15309,0.079,551
2019-11-16T01:58:39,42.805,6.029,CST-1368DR,7357,10308,15309,0.079,551
2019-11-16T02:01:40,42.805,6.029,CST-1368DR,7357,10306,15306,0.080,551
2019-11-16T02:04:42,42.805,6.029,CST-1368DR,7357,10308,15310,0.079,551
2019-11-16T02:07:43,42.805,6.029,CST-1368DR,7357,10304,15304,0.081,550
2019-11-16T02:10:45,42.805,6.029,CST-1368DR,7357,10307,15309,0.079,550
2019-11-16T02:13:47,42.805,6.029,CST-1368DR,7357,10303,15302,0.081,551
2019-11-16T02:16:48,42.805,6.029,CST-1368DR,7357,10303,15303,0.081,551
2019-11-16T02:19:50,42.805,6.029,CST-1368DR,7357,10305,15306,0.080,551
2019-11-16T02:22:52,42.805,6.029,CST-1368DR,7357,10306,15307,0.080,551
2019-11-16T02:25:53,42.805,6.029,CST-1368DR,7357,10307,15309,0.079,551
2019-11-16T02:28:55,42.805,6.029,CST-1368DR,7357,10306,15308,0.080,551
2019-11-16T02:31:57,42.805,6.029,CST-1368DR,7357,10306,15307,0.080,551
2019-11-16T02:34:58,42.805,6.029,CST-1368DR,7357,10306,15307,0.080,551
2019-11-16T02:38:00,42.805,6.029,CST-1368DR,7357,10306,15308,0.080,551
2019-11-16T02:41:02,42.805,6.029,CST-1368DR,7357,10305,15306,0.080,551
2019-11-16T02:44:03,42.805,6.029,CST-1368DR,7357,10305,15306,0.080,551
2019-11-16T02:47:05,42.805,6.029,CST-1368DR,7357,10306,15306,0.080,550
2019-11-16T02:50:07,42.805,6.029,CST-1368DR,7357,10305,15305,0.080,551
2019-11-16T02:53:08,42.805,6.029,CST-1368DR,7356,10306,15308,0.080,551
2019-11-16T02:56:10,42.805,6.029,CST-1368DR,7356,10306,15309,0.079,551
2019-11-16T02:59:12,42.805,6.029,CST-1368DR,7356,10305,15307,0.080,551
2019-11-16T03:02:13,42.805,6.029,CST-1368DR,7356,10306,15308,0.080,551
2019-11-16T03:05:15,42.805,6.029,CST-1368DR,7356,10306,15310,0.079,551
2019-11-16T03:08:16,42.805,6.029,CST-1368DR,7356,10306,15309,0.079,551
2019-11-16T03:11:18,42.805,6.029,CST-1368DR,7356,10306,15310,0.079,551
2019-11-16T03:14:20,42.805,6.029,CST-1368DR,7356,10305,15308,0.080,551
2019-11-16T03:17:21,42.805,6.029,CST-1368DR,7356,10307,15311,0.079,551
2019-11-16T03:20:23,42.805,6.029,CST-1368DR,7356,10304,15306,0.080,551
2019-11-16T03:23:25,42.805,6.029,CST-1368DR,7356,10307,15311,0.079,551
2019-11-16T03:26:26,42.805,6.029,CST-1368DR,7356,10304,15307,0.080,551
2019-11-16T03:29:28,42.805,6.029,CST-1368DR,7356,10306,15309,0.079,551
2019-11-16T03:32:30,42.805,6.029,CST-1368DR,7356,10306,15309,0.079,551
2019-11-16T03:35:31,42.805,6.029,CST-1368DR,7356,10306,15308,0.080,551
2019-11-16T03:38:33,42.805,6.029,CST-1368DR,7356,10306,15309,0.079,551
2019-11-16T03:41:35,42.805,6.029,CST-1368DR,7356,10302,15302,0.081,551
2019-11-16T03:44:36,42.805,6.029,CST-1368DR,7356,10304,15306,0.080,551
2019-11-16T03:47:38,42.805,6.029,CST-1368DR,7356,10306,15309,0.079,551
2019-11-16T03:50:39,42.805,6.029,CST-1368DR,7356,10304,15306,0.080,551
2019-11-16T03:53:41,42.805,6.029,CST-1368DR,7356,10306,15308,0.080,550
2019-11-16T03:56:43,42.805,6.029,CST-1368DR,7356,10305,15308,0.080,551
2019-11-16T03:59:44,42.805,6.029,CST-1368DR,7356,10306,15310,0.079,551
2019-11-16T04:02:46,42.805,6.029,CST-1368DR,7356,10305,15308,0.080,551
2019-11-16T04:05:48,42.805,6.029,CST-1368DR,7356,10305,15308,0.080,551
2019-11-16T04:08:49,42.805,6.029,CST-1368DR,7356,10306,15308,0.080,551
2019-11-16T04:11:51,42.805,6.029,CST-1368DR,7356,10306,15309,0.079,551
2019-11-16T04:14:53,42.805,6.029,CST-1368DR,7356,10305,15308,0.080,551
2019-11-16T04:17:54,42.805,6.029,CST-1368DR,7356,10306,15309,0.079,550
2019-11-16T04:20:56,42.805,6.029,CST-1368DR,7356,10305,15307,0.080,551
2019-11-16T04:23:57,42.805,6.029,CST-1368DR,7356,10306,15308,0.080,551
2019-11-16T04:26:59,42.805,6.029,CST-1368DR,7356,10305,15307,0.080,551
2019-11-16T04:30:01,42.805,6.029,CST-1368DR,7356,10305,15308,0.080,551
2019-11-16T04:33:02,42.805,6.029,CST-1368DR,7355,10305,15309,0.079,551
2019-11-16T04:36:04,42.805,6.029,CST-1368DR,7355,10306,15311,0.079,551
2019-11-16T04:39:06,42.805,6.029,CST-1368DR,7355,10305,15309,0.079,551
2019-11-16T04:42:07,42.805,6.029,CST-1368DR,7356,10305,15307,0.080,551
2019-11-16T04:45:09,42.805,6.029,CST-1368DR,7356,10306,15310,0.079,551
2019-11-16T04:48:11,42.805,6.029,CST-1368DR,7356,10305,15307,0.080,551
2019-11-16T04:51:12,42.805,6.029,CST-1368DR,7356,10305,15308,0.080,551
2019-11-16T04:54:14,42.805,6.029,CST-1368DR,7356,10304,15307,0.080,551
2019-11-16T04:57:16,42.805,6.029,CST-1368DR,7356,10306,15308,0.080,551
2019-11-16T05:00:17,42.805,6.029,CST-1368DR,7356,10307,15311,0.079,551
2019-11-16T05:03:19,42.805,6.029,CST-1368DR,7356,10306,15310,0.079,550
2019-11-16T05:06:21,42.805,6.029,CST-1368DR,7356,10306,15309,0.079,551
2019-11-16T05:09:22,42.805,6.029,CST-1368DR,7356,10306,15310,0.079,551
2019-11-16T05:12:24,42.805,6.029,CST-1368DR,7356,10306,15308,0.080,551
2019-11-16T05:15:26,42.805,6.029,CST-1368DR,7356,10300,15300,0.082,551
2019-11-16T05:18:27,42.805,6.029,CST-1368DR,7355,10305,15310,0.079,551
2019-11-16T05:21:29,42.805,6.029,CST-1368DR,7355,10305,15310,0.079,550
2019-11-16T05:24:31,42.805,6.029,CST-1368DR,7355,10305,15310,0.079,550
2019-11-16T05:27:32,42.805,6.029,CST-1368DR,7355,10305,15310,0.079,551
2019-11-16T05:30:34,42.805,6.029,CST-1368DR,7355,10305,15310,0.079,551
2019-11-16T05:33:35,42.805,6.029,CST-1368DR,7355,10306,15311,0.079,551
2019-11-16T05:36:37,42.805,6.029,CST-1368DR,7355,10306,15310,0.079,550
2019-11-16T05:39:39,42.805,6.029,CST-1368DR,7355,10306,15310,0.079,551
2019-11-16T05:42:40,42.805,6.029,CST-1368DR,7355,10307,15312,0.079,551
2019-11-16T05:45:42,42.805,6.029,CST-1368DR,7355,10301,15303,0.081,551
2019-11-16T05:48:44,42.805,6.029,CST-1368DR,7355,10305,15309,0.079,551
2019-11-16T05:51:45,42.805,6.029,CST-1368DR,7355,10306,15311,0.079,551
2019-11-16T05:54:47,42.805,6.029,CST-1368DR,7355,10306,15310,0.079,551
2019-11-16T05:57:49,42.805,6.029,CST-1368DR,7355,10307,15312,0.079,550
2019-11-16T06:00:50,42.805,6.029,CST-1368DR,7355,10305,15309,0.079,550
2019-11-16T06:03:52,42.805,6.029,CST-1368DR,7355,10306,15311,0.079,551
2019-11-16T06:06:54,42.805,6.029,CST-1368DR,7355,10305,15309,0.079,551
2019-11-16T06:09:55,42.805,6.029,CST-1368DR,7355,10307,15313,0.078,551
2019-11-16T06:12:57,42.805,6.029,CST-1368DR,7355,10306,15311,0.079,551
2019-11-16T06:15:59,42.805,6.029,CST-1368DR,7355,10307,15313,0.078,551
2019-11-16T06:19:00,42.805,6.029,CST-1368DR,7355,10306,15310,0.079,551
2019-11-16T06:22:02,42.805,6.029,CST-1368DR,7355,10306,15310,0.079,551
2019-11-16T06:25:03,42.805,6.029,CST-1368DR,7355,10305,15309,0.079,551
2019-11-16T06:28:05,42.805,6.029,CST-1368DR,7355,10304,15308,0.080,551
2019-11-16T06:31:07,42.805,6.029,CST-1368DR,7355,10306,15311,0.079,551
2019-11-16T06:34:08,42.805,6.029,CST-1368DR,7355,10304,15307,0.080,551
2019-11-16T06:37:10,42.805,6.029,CST-1368DR,7355,10305,15310,0.079,551
2019-11-16T06:40:12,42.805,6.029,CST-1368DR,7355,10304,15309,0.079,551
2019-11-16T06:43:14,42.805,6.029,CST-1368DR,7355,10305,15310,0.079,551
2019-11-16T06:46:15,42.805,6.029,CST-1368DR,7355,10305,15310,0.079,551
2019-11-16T06:49:17,42.805,6.029,CST-1368DR,7355,10307,15312,0.079,551
2019-11-16T06:52:19,42.805,6.029,CST-1368DR,7355,10306,15311,0.079,551
2019-11-16T06:55:20,42.805,6.029,CST-1368DR,7355,10305,15310,0.079,551
2019-11-16T06:58:22,42.805,6.029,CST-1368DR,7355,10306,15311,0.079,551
2019-11-16T07:01:24,42.805,6.029,CST-1368DR,7355,10306,15311,0.079,551
2019-11-16T07:04:25,42.805,6.029,CST-1368DR,7355,10306,15310,0.079,551
2019-11-16T07:07:27,42.805,6.029,CST-1368DR,7355,10306,15310,0.079,551
2019-11-16T07:10:29,42.805,6.029,CST-1368DR,7355,10305,15309,0.079,551
2019-11-16T07:13:30,42.805,6.029,CST-1368DR,7355,10304,15308,0.080,551
2019-11-16T07:16:32,42.805,6.029,CST-1368DR,7355,10304,15308,0.080,551
2019-11-16T07:19:34,42.805,6.029,CST-1368DR,7355,10304,15309,0.079,550
2019-11-16T07:22:35,42.805,6.029,CST-1368DR,7355,10304,15308,0.080,551
2019-11-16T07:25:37,42.805,6.029,CST-1368DR,7355,10304,15309,0.079,551
2019-11-16T07:28:38,42.805,6.029,CST-1368DR,7355,10304,15308,0.080,551
2019-11-16T07:31:40,42.805,6.029,CST-1368DR,7355,10306,15310,0.079,550
2019-11-16T07:34:42,42.805,6.029,CST-1368DR,7355,10306,15311,0.079,550
2019-11-16T07:37:43,42.805,6.029,CST-1368DR,7355,10305,15310,0.079,550
2019-11-16T07:40:45,42.805,6.029,CST-1368DR,7355,10307,15312,0.079,551
2019-11-16T07:43:47,42.805,6.029,CST-1368DR,7355,10305,15309,0.079,551
2019-11-16T07:46:48,42.805,6.029,CST-1368DR,7355,10304,15309,0.079,551
2019-11-16T07:49:50,42.805,6.029,CST-1368DR,7355,10305,15310,0.079,551
2019-11-16T07:52:52,42.805,6.029,CST-1368DR,7355,10306,15311,0.079,550
2019-11-16T07:55:53,42.805,6.029,CST-1368DR,7355,10305,15310,0.079,551
2019-11-16T07:58:55,42.805,6.029,CST-1368DR,7355,10307,15312,0.079,550
2019-11-16T08:01:56,42.805,6.029,CST-1368DR,7355,10305,15310,0.079,551
2019-11-16T08:04:58,42.805,6.029,CST-1368DR,7355,10302,15306,0.080,551
2019-11-16T08:08:00,42.805,6.029,CST-1368DR,7355,10306,15310,0.079,551
2019-11-16T08:11:01,42.805,6.029,CST-1368DR,7355,10303,15306,0.080,551
2019-11-16T08:14:03,42.805,6.029,CST-1368DR,7355,10304,15308,0.080,550
2019-11-16T08:17:05,42.805,6.029,CST-1368DR,7355,10303,15306,0.080,551
2019-11-16T08:20:06,42.805,6.029,CST-1368DR,7355,10305,15309,0.079,551
2019-11-16T08:23:08,42.805,6.029,CST-1368DR,7355,10304,15308,0.080,551
2019-11-16T08:26:09,42.805,6.029,CST-1368DR,7355,10306,15310,0.079,551
2019-11-16T08:29:12,42.805,6.029,CST-1368DR,7355,10306,15311,0.079,551
2019-11-16T08:32:13,42.805,6.029,CST-1368DR,7355,10297,15298,0.082,551
2019-11-16T08:35:15,42.805,6.029,CST-1368DR,7355,10303,15307,0.080,550
2019-11-16T08:38:17,42.805,6.029,CST-1368DR,7355,10305,15310,0.079,551
2019-11-16T08:41:18,42.805,6.029,CST-1368DR,7355,10304,15309,0.079,551
2019-11-16T08:44:20,42.805,6.029,CST-1368DR,7355,10306,15311,0.079,551
2019-11-16T08:47:22,42.805,6.029,CST-1368DR,7355,10305,15310,0.079,551
2019-11-16T08:50:23,42.805,6.029,CST-1368DR,7355,10305,15309,0.079,550
2019-11-16T08:53:25,42.805,6.029,CST-1368DR,7355,10305,15310,0.079,551
2019-11-16T08:56:27,42.805,6.029,CST-1368DR,7355,10305,15310,0.079,551
2019-11-16T08:59:29,42.805,6.029,CST-1368DR,7355,10304,15307,0.080,551
2019-11-16T09:02:31,42.805,6.029,CST-1368DR,7355,10304,15309,0.079,551
2019-11-16T09:05:32,42.805,6.029,CST-1368DR,7355,10305,15309,0.079,551
2019-11-16T09:08:34,42.805,6.029,CST-1368DR,7355,10303,15307,0.080,551
2019-11-16T09:11:36,42.805,6.029,CST-1368DR,7355,10303,15306,0.080,551
2019-11-16T09:14:37,42.805,6.029,CST-1368DR,7355,10303,15307,0.080,551
2019-11-16T09:17:39,42.805,6.029,CST-1368DR,7355,10304,15307,0.080,551
2019-11-16T09:20:41,42.805,6.029,CST-1368DR,7355,10304,15308,0.080,551
2019-11-16T09:23:42,42.805,6.029,CST-1368DR,7355,10300,15301,0.082,551
2019-11-16T09:26:44,42.805,6.029,CST-1368DR,7355,10303,15306,0.080,551
2019-11-16T09:29:46,42.805,6.029,CST-1368DR,7355,10305,15310,0.079,551
2019-11-16T09:32:47,42.805,6.029,CST-1368DR,7355,10304,15309,0.079,551
2019-11-16T09:35:49,42.805,6.029,CST-1368DR,7355,10304,15308,0.080,551
2019-11-16T09:38:50,42.805,6.029,CST-1368DR,7355,10304,15307,0.080,551
2019-11-16T09:41:52,42.805,6.029,CST-1368DR,7355,10304,15308,0.080,551
2019-11-16T09:44:54,42.805,6.029,CST-1368DR,7355,10303,15307,0.080,551
2019-11-16T09:47:55,42.805,6.029,CST-1368DR,7355,10304,15307,0.080,551
2019-11-16T09:50:57,42.805,6.029,CST-1368DR,7355,10305,15309,0.079,551
2019-11-16T09:53:58,42.805,6.029,CST-1368DR,7355,10304,15307,0.080,551
2019-11-16T09:57:00,42.805,6.029,CST-1368DR,7355,10304,15309,0.079,551
2019-11-16T10:00:02,42.805,6.029,CST-1368DR,7355,10304,15308,0.080,551
2019-11-16T10:03:03,42.805,6.029,CST-1368DR,7355,10304,15308,0.080,551
2019-11-16T10:06:05,42.805,6.029,CST-1368DR,7355,10303,15306,0.080,550
2019-11-16T10:09:07,42.805,6.029,CST-1368DR,7355,10304,15307,0.080,551
2019-11-16T10:12:08,42.805,6.029,CST-1368DR,7355,10304,15307,0.080,551
2019-11-16T10:15:10,42.805,6.029,CST-1368DR,7355,10304,15307,0.080,551
2019-11-16T10:18:11,42.805,6.029,CST-1368DR,7355,10305,15309,0.079,551
2019-11-16T10:21:13,42.805,6.029,CST-1368DR,7355,10304,15308,0.080,551
2019-11-16T10:24:15,42.805,6.029,CST-1368DR,7354,10302,15307,0.080,551
2019-11-16T10:27:16,42.805,6.029,CST-1368DR,7354,10303,15308,0.080,551
2019-11-16T10:30:18,42.805,6.029,CST-1368DR,7354,10302,15306,0.080,550
2019-11-16T10:33:20,42.805,6.029,CST-1368DR,7354,10302,15307,0.080,550
2019-11-16T10:36:21,42.805,6.029,CST-1368DR,7354,10301,15305,0.080,551
2019-11-16T10:39:23,42.805,6.029,CST-1368DR,7354,10303,15309,0.079,551
2019-11-16T10:42:24,42.805,6.029,CST-1368DR,7354,10304,15310,0.079,551
2019-11-16T10:45:26,42.805,6.029,CST-1368DR,7354,10293,15293,0.084,551
2019-11-16T10:48:28,42.805,6.029,CST-1368DR,7354,10292,15292,0.084,551
2019-11-16T10:51:29,42.805,6.029,CST-1368DR,7354,10299,15303,0.081,551
2019-11-16T10:54:31,42.805,6.029,CST-1368DR,7354,10302,15306,0.080,551
2019-11-16T10:57:33,42.805,6.029,CST-1368DR,7354,10301,15305,0.080,551
2019-11-16T11:00:34,42.805,6.029,CST-1368DR,7354,10303,15309,0.079,551
2019-11-16T11:03:36,42.805,6.029,CST-1368DR,7354,10302,15307,0.080,551
2019-11-16T11:06:38,42.805,6.029,CST-1368DR,7354,10303,15308,0.080,551
2019-11-16T11:09:39,42.805,6.029,CST-1368DR,7354,10304,15310,0.079,551
2019-11-16T11:12:41,42.805,6.029,CST-1368DR,7354,10303,15308,0.080,551
2019-11-16T11:15:42,42.805,6.029,CST-1368DR,7354,10303,15309,0.079,551
2019-11-16T11:18:44,42.805,6.029,CST-1368DR,7354,10303,15308,0.080,551
2019-11-16T11:21:46,42.805,6.029,CST-1368DR,7354,10303,15308,0.080,551
2019-11-16T11:24:47,42.805,6.029,CST-1368DR,7354,10302,15307,0.080,551
2019-11-16T11:27:49,42.805,6.029,CST-1368DR,7354,10302,15307,0.080,550
2019-11-16T11:30:51,42.805,6.029,CST-1368DR,7354,10303,15309,0.079,551
2019-11-16T11:33:52,42.805,6.029,CST-1368DR,7354,10302,15307,0.080,551
2019-11-16T11:36:54,42.805,6.029,CST-1368DR,7354,10303,15308,0.080,551
2019-11-16T11:39:55,42.805,6.029,CST-1368DR,7354,10303,15308,0.080,551
2019-11-16T11:42:57,42.805,6.029,CST-1368DR,7354,10299,15303,0.081,551
2019-11-16T11:45:59,42.805,6.029,CST-1368DR,7354,10302,15307,0.080,551
2019-11-16T11:49:00,42.805,6.029,CST-1368DR,7354,10303,15308,0.080,551
2019-11-16T11:52:02,42.805,6.029,CST-1368DR,7354,10302,15307,0.080,551
2019-11-16T11:55:04,42.805,6.029,CST-1368DR,7354,10302,15307,0.080,551
2019-11-16T11:58:05,42.805,6.029,CST-1368DR,7354,10301,15305,0.080,551
2019-11-16T12:01:07,42.805,6.029,CST-1368DR,7354,10302,15306,0.080,551
2019-11-16T12:04:09,42.805,6.029,CST-1368DR,7354,10301,15305,0.080,551
2019-11-16T12:07:10,42.805,6.029,CST-1368DR,7354,10302,15307,0.080,551
2019-11-16T12:10:12,42.805,6.029,CST-1368DR,7354,10301,15306,0.080,551
2019-11-16T12:13:13,42.805,6.029,CST-1368DR,7354,10304,15309,0.079,551
2019-11-16T12:16:15,42.805,6.029,CST-1368DR,7354,10302,15307,0.080,551
2019-11-16T12:19:17,42.805,6.029,CST-1368DR,7354,10302,15307,0.080,551
2019-11-16T12:22:18,42.805,6.029,CST-1368DR,7354,10303,15308,0.080,550
2019-11-16T12:25:20,42.805,6.029,CST-1368DR,7354,10302,15307,0.080,551
2019-11-16T12:28:22,42.805,6.029,CST-1368DR,7354,10303,15309,0.079,551
2019-11-16T12:31:23,42.805,6.029,CST-1368DR,7354,10303,15308,0.080,551
2019-11-16T12:34:25,42.805,6.029,CST-1368DR,7354,10300,15304,0.081,551
2019-11-16T12:37:27,42.805,6.029,CST-1368DR,7354,10302,15307,0.080,550
2019-11-16T12:40:29,42.805,6.029,CST-1368DR,7354,10303,15308,0.080,551
2019-11-16T12:43:30,42.805,6.029,CST-1368DR,7354,10300,15304,0.081,551
2019-11-16T12:46:32,42.805,6.029,CST-1368DR,7354,10304,15310,0.079,551
2019-11-16T12:49:34,42.805,6.029,CST-1368DR,7354,10303,15308,0.080,551
2019-11-16T12:52:35,42.805,6.029,CST-1368DR,7354,10303,15309,0.079,551
2019-11-16T12:55:37,42.805,6.029,CST-1368DR,7354,10304,15309,0.079,550
2019-11-16T12:58:39,42.805,6.029,CST-1368DR,7354,10304,15310,0.079,551
2019-11-16T13:01:40,42.805,6.029,CST-1368DR,7354,10304,15310,0.079,551
2019-11-16T13:04:42,42.805,6.029,CST-1368DR,7354,10304,15309,0.079,551
2019-11-16T13:07:44,42.805,6.029,CST-1368DR,7354,10304,15309,0.079,551
2019-11-16T13:10:45,42.805,6.029,CST-1368DR,7354,10303,15308,0.080,550
2019-11-16T13:13:47,42.805,6.029,CST-1368DR,7354,10302,15307,0.080,551
2019-11-16T13:16:49,42.805,6.029,CST-1368DR,7354,10304,15310,0.079,550
2019-11-16T13:19:50,42.805,6.029,CST-1368DR,7354,10304,15309,0.079,551
2019-11-16T13:22:52,42.805,6.029,CST-1368DR,7354,10303,15308,0.080,551
2019-11-16T13:25:54,42.805,6.029,CST-1368DR,7354,10304,15310,0.079,551
2019-11-16T13:28:55,42.805,6.029,CST-1368DR,7354,10303,15308,0.080,551
2019-11-16T13:31:57,42.805,6.029,CST-1368DR,7354,10302,15307,0.080,551
2019-11-16T13:34:59,42.805,6.029,CST-1368DR,7354,10304,15310,0.079,551
2019-11-16T13:38:00,42.805,6.029,CST-1368DR,7353,10302,15309,0.079,551
2019-11-16T13:41:02,42.805,6.029,CST-1368DR,7354,10302,15307,0.080,551
2019-11-16T13:44:04,42.805,6.029,CST-1368DR,7353,10302,15309,0.079,551
2019-11-16T13:47:05,42.805,6.029,CST-1368DR,7353,10302,15309,0.079,551
2019-11-16T13:50:07,42.805,6.029,CST-1368DR,7353,10302,15309,0.079,551
2019-11-16T13:53:09,42.805,6.029,CST-1368DR,7353,10302,15309,0.079,551
2019-11-16T13:56:10,42.805,6.029,CST-1368DR,7353,10303,15310,0.079,551
2019-11-16T13:59:12,42.805,6.029,CST-1368DR,7353,10302,15308,0.080,551
2019-11-16T14:02:14,42.805,6.029,CST-1368DR,7353,10301,15307,0.080,551
2019-11-16T14:05:15,42.805,6.029,CST-1368DR,7353,10301,15308,0.080,551
2019-11-16T14:08:17,42.805,6.029,CST-1368DR,7353,10301,15308,0.080,551
2019-11-16T14:11:19,42.805,6.029,CST-1368DR,7353,10302,15308,0.080,551
2019-11-16T14:14:20,42.805,6.029,CST-1368DR,7353,10301,15308,0.080,551
2019-11-16T14:17:22,42.805,6.029,CST-1368DR,7353,10304,15311,0.079,551
2019-11-16T14:20:23,42.805,6.029,CST-1368DR,7353,10303,15311,0.079,551
2019-11-16T14:23:25,42.805,6.029,CST-1368DR,7353,10303,15310,0.079,551
2019-11-16T14:26:27,42.805,6.029,CST-1368DR,7353,10304,15311,0.079,551
2019-11-16T14:29:28,42.805,6.029,CST-1368DR,7353,10303,15310,0.079,551
2019-11-16T14:32:30,42.805,6.029,CST-1368DR,7353,10304,15312,0.079,551
2019-11-16T14:35:32,42.805,6.029,CST-1368DR,7353,10304,15311,0.079,551
2019-11-16T14:38:33,42.805,6.029,CST-1368DR,7353,10302,15309,0.079,551
2019-11-16T14:41:35,42.805,6.029,CST-1368DR,7353,10303,15310,0.079,551
2019-11-16T14:44:37,42.805,6.029,CST-1368DR,7353,10304,15312,0.079,551
2019-11-16T14:47:38,42.805,6.029,CST-1368DR,7353,10304,15312,0.079,551
2019-11-16T14:50:40,42.805,6.029,CST-1368DR,7353,10303,15310,0.079,550
2019-11-16T14:53:42,42.805,6.029,CST-1368DR,7353,10303,15310,0.079,551
2019-11-16T14:56:43,42.805,6.029,CST-1368DR,7353,10303,15311,0.079,551
2019-11-16T14:59:45,42.805,6.029,CST-1368DR,7353,10303,15311,0.079,551
2019-11-16T15:02:47,42.805,6.029,CST-1368DR,7353,10302,15309,0.079,551
2019-11-16T15:05:48,42.805,6.029,CST-1368DR,7353,10303,15311,0.079,551
2019-11-16T15:08:50,42.805,6.029,CST-1368DR,7353,10304,15311,0.079,551
2019-11-16T15:11:52,42.805,6.029,CST-1368DR,7353,10303,15311,0.079,551
2019-11-16T15:14:53,42.805,6.029,CST-1368DR,7353,10304,15312,0.079,550
2019-11-16T15:17:55,42.805,6.029,CST-1368DR,7353,10304,15312,0.079,551
2019-11-16T15:20:56,42.805,6.029,CST-1368DR,7353,10304,15312,0.079,551
2019-11-16T15:23:58,42.805,6.029,CST-1368DR,7353,10303,15310,0.079,551
2019-11-16T15:27:00,42.805,6.029,CST-1368DR,7353,10302,15309,0.079,551
2019-11-16T15:30:01,42.805,6.029,CST-1368DR,7353,10302,15309,0.079,551
2019-11-16T15:33:03,42.805,6.029,CST-1368DR,7353,10303,15310,0.079,551
2019-11-16T15:36:05,42.805,6.029,CST-1368DR,7353,10303,15311,0.079,551
2019-11-16T15:39:06,42.805,6.029,CST-1368DR,7353,10302,15309,0.079,551
2019-11-16T15:42:08,42.805,6.029,CST-1368DR,7353,10302,15309,0.079,551
2019-11-16T15:45:10,42.805,6.029,CST-1368DR,7353,10302,15309,0.079,551
2019-11-16T15:48:11,42.805,6.029,CST-1368DR,7353,10303,15310,0.079,551
2019-11-16T15:51:13,42.805,6.029,CST-1368DR,7353,10302,15309,0.079,551
2019-11-16T15:54:15,42.805,6.029,CST-1368DR,7353,10301,15307,0.080,551
2019-11-16T15:57:16,42.805,6.029,CST-1368DR,7353,10303,15310,0.079,551
2019-11-16T16:00:18,42.805,6.029,CST-1368DR,7353,10302,15309,0.079,551
2019-11-16T16:03:20,42.805,6.029,CST-1368DR,7353,10302,15309,0.079,550
2019-11-16T16:06:21,42.805,6.029,CST-1368DR,7353,10302,15309,0.079,551
2019-11-16T16:09:23,42.805,6.029,CST-1368DR,7353,10301,15308,0.080,550
2019-11-16T16:12:25,42.805,6.029,CST-1368DR,7353,10302,15308,0.080,551
2019-11-16T16:15:26,42.805,6.029,CST-1368DR,7353,10302,15309,0.079,550
2019-11-16T16:18:28,42.805,6.029,CST-1368DR,7353,10302,15309,0.079,551
2019-11-16T16:21:30,42.805,6.029,CST-1368DR,7353,10302,15309,0.079,551
2019-11-16T16:24:31,42.805,6.029,CST-1368DR,7353,10302,15309,0.079,551
2019-11-16T16:27:33,42.805,6.029,CST-1368DR,7353,10303,15310,0.079,551
2019-11-16T16:30:35,42.805,6.029,CST-1368DR,7353,10303,15311,0.079,551
2019-11-16T16:33:36,42.805,6.029,CST-1368DR,7353,10300,15306,0.080,551
2019-11-16T16:36:38,42.805,6.029,CST-1368DR,7352,10301,15310,0.079,551